Time,TemperatureF,DewpointF,PressureIn,WindDirection,WindDirectionDegrees,WindSpeedMPH,WindSpeedGustMPH,Humidity,HourlyPrecipIn,Conditions,Clouds,dailyrainin,SoftwareType,DateUTC
2013-08-25 00:02:00,58.5,56.0,30.36,NNW,348,0.0,-999.0,92,-99.99,,,0.00,weatherlink.com 1.10,2013-08-25 04:02:00,
2013-08-25 00:17:00,58.2,56.0,30.36,NNW,348,0.0,-999.0,92,-99.99,,,0.00,weatherlink.com 1.10,2013-08-25 04:17:00,
2013-08-25 00:32:00,57.9,56.0,30.36,NNW,348,0.0,-999.0,93,-99.99,,,0.00,weatherlink.com 1.10,2013-08-25 04:32:00,
2013-08-25 00:47:00,57.6,56.0,30.35,NNW,348,0.0,-999.0,93,-99.99,,,0.00,weatherlink.com 1.10,2013-08-25 04:47:00,
2013-08-25 06:22:00,53.3,52.0,30.39,NNW,348,0.0,-999.0,96,-99.99,,,0.00,weatherlink.com 1.10,2013-08-25 10:22:00,
2013-08-25 06:34:00,53.4,52.0,30.39,NNW,348,0.0,-999.0,96,-99.99,,,0.00,weatherlink.com 1.10,2013-08-25 10:34:00,
2013-08-25 06:49:00,53.8,53.0,30.39,NNW,348,0.0,-999.0,97,-99.99,,,0.00,weatherlink.com 1.10,2013-08-25 10:49:00,
2013-08-25 07:04:00,54.2,53.0,30.40,NNW,348,0.0,-999.0,97,-99.99,,,0.00,weatherlink.com 1.10,2013-08-25 11:04:00,
2013-08-25 07:20:00,54.3,54.0,30.40,NNW,348,0.0,-999.0,97,-99.99,,,0.00,weatherlink.com 1.10,2013-08-25 11:20:00,
2013-08-25 07:35:00,54.7,54.0,30.41,NNW,348,0.0,-999.0,97,-99.99,,,0.00,weatherlink.com 1.10,2013-08-25 11:35:00,
2013-08-25 07:50:00,55.1,54.0,30.40,NNW,348,0.0,-999.0,97,-99.99,,,0.00,weatherlink.com 1.10,2013-08-25 11:50:00,
2013-08-25 08:05:00,55.4,55.0,30.40,NNW,348,0.0,-999.0,97,-99.99,,,0.00,weatherlink.com 1.10,2013-08-25 12:05:00,
2013-08-25 08:20:00,56.0,55.0,30.40,NNW,348,0.0,-999.0,97,-99.99,,,0.00,weatherlink.com 1.10,2013-08-25 12:20:00,
2013-08-25 08:35:00,56.9,56.0,30.41,NNW,348,0.0,-999.0,97,-99.99,,,0.00,weatherlink.com 1.10,2013-08-25 12:35:00,
2013-08-25 08:50:00,57.6,57.0,30.41,NNW,348,0.0,-999.0,97,-99.99,,,0.00,weatherlink.com 1.10,2013-08-25 12:50:00,
2013-08-25 09:05:00,58.7,58.0,30.41,NNW,348,0.0,-999.0,97,-99.99,,,0.00,weatherlink.com 1.10,2013-08-25 13:05:00,
2013-08-25 09:20:00,60.5,59.0,30.40,NNW,348,0.0,-999.0,96,-99.99,,,0.00,weatherlink.com 1.10,2013-08-25 13:20:00,
2013-08-25 09:35:00,62.9,61.0,30.40,NNW,348,0.0,-999.0,92,-99.99,,,0.00,weatherlink.com 1.10,2013-08-25 13:35:00,
2013-08-25 09:51:00,65.2,61.0,30.40,NNW,348,0.0,-999.0,85,-99.99,,,0.00,weatherlink.com 1.10,2013-08-25 13:51:00,
2013-08-25 10:06:00,68.2,62.0,30.39,NNW,348,0.0,-999.0,80,-99.99,,,0.00,weatherlink.com 1.10,2013-08-25 14:06:00,
2013-08-25 10:21:00,71.3,63.0,30.39,NNW,348,0.0,-999.0,75,-99.99,,,0.00,weatherlink.com 1.10,2013-08-25 14:21:00,
2013-08-25 10:36:00,73.1,61.0,30.39,NNW,348,0.0,-999.0,67,-99.99,,,0.00,weatherlink.com 1.10,2013-08-25 14:36:00,
2013-08-25 10:51:00,75.2,63.0,30.38,NNW,348,0.0,-999.0,65,-99.99,,,0.00,weatherlink.com 1.10,2013-08-25 14:51:00,
2013-08-25 11:06:00,76.6,63.0,30.38,NNW,348,0.0,-999.0,63,-99.99,,,0.00,weatherlink.com 1.10,2013-08-25 15:06:00,
2013-08-25 11:21:00,78.2,62.0,30.37,NNW,345,0.0,-999.0,57,-99.99,,,0.00,weatherlink.com 1.10,2013-08-25 15:21:00,
2013-08-25 11:36:00,78.2,59.0,30.37,NNW,345,0.0,-999.0,52,-99.99,,,0.00,weatherlink.com 1.10,2013-08-25 15:36:00,
2013-08-25 11:52:00,79.4,60.0,30.36,NNW,345,0.0,-999.0,51,-99.99,,,0.00,weatherlink.com 1.10,2013-08-25 15:52:00,
2013-08-25 12:07:00,79.6,59.0,30.35,NNW,345,0.0,-999.0,50,-99.99,,,0.00,weatherlink.com 1.10,2013-08-25 16:07:00,
2013-08-25 12:22:00,80.6,57.0,30.34,NW,315,0.0,-999.0,45,-99.99,,,0.00,weatherlink.com 1.10,2013-08-25 16:22:00,
2013-08-25 12:37:00,80.9,59.0,30.34,WSW,242,0.0,-999.0,48,-99.99,,,0.00,weatherlink.com 1.10,2013-08-25 16:37:00,
2013-08-25 12:52:00,82.5,60.0,30.34,WSW,254,0.0,-999.0,47,-99.99,,,0.00,weatherlink.com 1.10,2013-08-25 16:52:00,
2013-08-25 13:07:00,81.7,58.0,30.33,NE,56,0.0,-999.0,44,-99.99,,,0.00,weatherlink.com 1.10,2013-08-25 17:07:00,
2013-08-25 13:22:00,82.4,59.0,30.33,NE,56,0.0,-999.0,45,-99.99,,,0.00,weatherlink.com 1.10,2013-08-25 17:22:00,
2013-08-25 13:37:00,83.1,59.0,30.33,ENE,69,0.0,-999.0,44,-99.99,,,0.00,weatherlink.com 1.10,2013-08-25 17:37:00,
2013-08-25 13:52:00,83.0,58.0,30.33,NW,309,0.0,-999.0,42,-99.99,,,0.00,weatherlink.com 1.10,2013-08-25 17:52:00,
2013-08-25 14:08:00,83.3,59.0,30.32,SE,129,0.0,-999.0,44,-99.99,,,0.00,weatherlink.com 1.10,2013-08-25 18:08:00,
2013-08-25 14:23:00,83.7,59.0,30.32,NW,325,0.0,-999.0,43,-99.99,,,0.00,weatherlink.com 1.10,2013-08-25 18:23:00,
2013-08-25 14:38:00,83.7,58.0,30.32,ESE,114,0.0,-999.0,42,-99.99,,,0.00,weatherlink.com 1.10,2013-08-25 18:38:00,
2013-08-25 14:53:00,82.0,58.0,30.31,NNE,17,0.0,-999.0,44,-99.99,,,0.00,weatherlink.com 1.10,2013-08-25 18:53:00,
2013-08-25 15:08:00,81.8,57.0,30.31,NW,304,0.0,-999.0,43,-99.99,,,0.00,weatherlink.com 1.10,2013-08-25 19:08:00,
2013-08-25 15:23:00,81.0,58.0,30.30,NE,55,0.0,-999.0,45,-99.99,,,0.00,weatherlink.com 1.10,2013-08-25 19:23:00,
2013-08-25 15:38:00,81.0,58.0,30.30,East,101,0.0,-999.0,46,-99.99,,,0.00,weatherlink.com 1.10,2013-08-25 19:38:00,
2013-08-25 15:53:00,80.7,58.0,30.29,SW,220,0.0,-999.0,46,-99.99,,,0.00,weatherlink.com 1.10,2013-08-25 19:53:00,
2013-08-25 16:08:00,80.7,58.0,30.29,ESE,102,0.0,-999.0,46,-99.99,,,0.00,weatherlink.com 1.10,2013-08-25 20:08:00,
2013-08-25 16:23:00,80.5,58.0,30.29,NE,56,0.0,-999.0,46,-99.99,,,0.00,weatherlink.com 1.10,2013-08-25 20:23:00,
2013-08-25 16:38:00,80.4,55.0,30.28,ESE,122,0.0,-999.0,41,-99.99,,,0.00,weatherlink.com 1.10,2013-08-25 20:38:00,
2013-08-25 16:54:00,80.6,55.0,30.28,ESE,122,0.0,-999.0,42,-99.99,,,0.00,weatherlink.com 1.10,2013-08-25 20:54:00,
2013-08-25 17:09:00,80.9,54.0,30.27,ESE,123,0.0,-999.0,40,-99.99,,,0.00,weatherlink.com 1.10,2013-08-25 21:09:00,
2013-08-25 17:24:00,80.4,54.0,30.27,NNW,337,0.0,-999.0,40,-99.99,,,0.00,weatherlink.com 1.10,2013-08-25 21:24:00,
2013-08-25 17:39:00,80.0,54.0,30.26,NNW,333,0.0,-999.0,41,-99.99,,,0.00,weatherlink.com 1.10,2013-08-25 21:39:00,
2013-08-25 17:54:00,79.4,55.0,30.26,NNW,333,0.0,-999.0,43,-99.99,,,0.00,weatherlink.com 1.10,2013-08-25 21:54:00,
2013-08-25 18:09:00,78.7,55.0,30.25,NNW,333,0.0,-999.0,44,-99.99,,,0.00,weatherlink.com 1.10,2013-08-25 22:09:00,
2013-08-25 18:24:00,78.2,55.0,30.24,NNW,333,0.0,-999.0,45,-99.99,,,0.00,weatherlink.com 1.10,2013-08-25 22:24:00,
2013-08-25 18:39:00,77.2,56.0,30.24,NNW,333,0.0,-999.0,48,-99.99,,,0.00,weatherlink.com 1.10,2013-08-25 22:39:00,
2013-08-25 18:54:00,76.0,56.0,30.24,NNW,333,0.0,-999.0,50,-99.99,,,0.00,weatherlink.com 1.10,2013-08-25 22:54:00,
2013-08-25 19:09:00,74.8,56.0,30.23,NNW,333,0.0,-999.0,53,-99.99,,,0.00,weatherlink.com 1.10,2013-08-25 23:09:00,
2013-08-25 19:24:00,73.7,57.0,30.24,NNW,333,0.0,-999.0,57,-99.99,,,0.00,weatherlink.com 1.10,2013-08-25 23:24:00,
2013-08-25 19:39:00,72.1,58.0,30.23,NNW,333,0.0,-999.0,61,-99.99,,,0.00,weatherlink.com 1.10,2013-08-25 23:39:00,
2013-08-25 19:55:00,70.6,59.0,30.23,NNW,333,0.0,-999.0,66,-99.99,,,0.00,weatherlink.com 1.10,2013-08-25 23:55:00,
2013-08-25 20:10:00,69.2,59.0,30.25,NNW,333,0.0,-999.0,69,-99.99,,,0.00,weatherlink.com 1.10,2013-08-26 00:10:00,
2013-08-25 20:25:00,68.5,60.0,30.24,NNW,333,0.0,-999.0,73,-99.99,,,0.00,weatherlink.com 1.10,2013-08-26 00:25:00,
2013-08-25 20:40:00,67.5,59.0,30.24,NNW,333,0.0,-999.0,73,-99.99,,,0.00,weatherlink.com 1.10,2013-08-26 00:40:00,
2013-08-25 20:55:00,66.9,59.0,30.25,NNW,333,0.0,-999.0,75,-99.99,,,0.00,weatherlink.com 1.10,2013-08-26 00:55:00,
2013-08-25 21:10:00,66.0,59.0,30.25,NNW,333,0.0,-999.0,77,-99.99,,,0.00,weatherlink.com 1.10,2013-08-26 01:10:00,
2013-08-25 21:25:00,65.3,58.0,30.24,NNW,333,0.0,-999.0,78,-99.99,,,0.00,weatherlink.com 1.10,2013-08-26 01:25:00,
2013-08-25 21:40:00,64.6,58.0,30.25,NNW,333,0.0,-999.0,79,-99.99,,,0.00,weatherlink.com 1.10,2013-08-26 01:40:00,
2013-08-25 21:55:00,64.1,58.0,30.25,NNW,333,0.0,-999.0,80,-99.99,,,0.00,weatherlink.com 1.10,2013-08-26 01:55:00,
2013-08-25 22:10:00,63.4,58.0,30.24,NNW,333,0.0,-999.0,83,-99.99,,,0.00,weatherlink.com 1.10,2013-08-26 02:10:00,
2013-08-25 22:25:00,63.0,58.0,30.24,NNW,333,0.0,-999.0,83,-99.99,,,0.00,weatherlink.com 1.10,2013-08-26 02:25:00,
2013-08-25 22:40:00,62.8,58.0,30.24,NNW,333,0.0,-999.0,84,-99.99,,,0.00,weatherlink.com 1.10,2013-08-26 02:40:00,
2013-08-25 22:55:00,62.8,58.0,30.24,NNW,333,0.0,-999.0,85,-99.99,,,0.00,weatherlink.com 1.10,2013-08-26 02:55:00,
2013-08-25 23:11:00,62.7,59.0,30.23,NNW,333,0.0,-999.0,86,-99.99,,,0.00,weatherlink.com 1.10,2013-08-26 03:11:00,
2013-08-25 23:26:00,62.6,59.0,30.23,NNW,333,0.0,-999.0,88,-99.99,,,0.00,weatherlink.com 1.10,2013-08-26 03:26:00,